This is the latest recevied weather packets stored in our database for station/object KJ4EBE. If no packets are shown the sender has not sent any weather packets the latest 10 day(s).
| Time | Temp. | Humidity | Pressure | Rain* | Wind** | Luminosity | Snow |
|---|---|---|---|---|---|---|---|
| 1777828266 | 24.44° C | 36% | 1021.7 hPa | 0 mm | - | 785 W/m² | - |
| 1777827962 | 24.44° C | 38% | 1021.9 hPa | 0 mm | - | 784 W/m² | - |
| 1777827659 | 24.44° C | 40% | 1021.9 hPa | 0 mm | - | 779 W/m² | - |
| 1777827356 | 25.56° C | 38% | 1022 hPa | 0 mm | - | 776 W/m² | - |
| 1777827052 | 25° C | 39% | 1021.9 hPa | 0 mm | - | 772 W/m² | - |
| 1777826749 | 25.56° C | 40% | 1022.1 hPa | 0 mm | - | 764 W/m² | - |
| 1777826446 | 25° C | 43% | 1022.3 hPa | 0 mm | - | 757 W/m² | - |
| 1777826143 | 25° C | 39% | 1022.2 hPa | 0 mm | - | 749 W/m² | - |
| 1777825840 | 24.44° C | 45% | 1022.2 hPa | 0 mm | - | 739 W/m² | - |
| 1777825537 | 24.44° C | 44% | 1022.3 hPa | 0 mm | - | 732 W/m² | - |
| 1777825235 | 25° C | 45% | 1022.2 hPa | 0 mm | - | 721 W/m² | - |
| 1777824932 | 25° C | 46% | 1022.4 hPa | 0 mm | - | 715 W/m² | - |
| 1777824628 | 25° C | 46% | 1022.4 hPa | 0 mm | - | 706 W/m² | - |
| 1777824325 | 23.89° C | 47% | 1022.4 hPa | 0 mm | - | 695 W/m² | - |
| 1777824021 | 23.89° C | 47% | 1022.5 hPa | 0 mm | - | 685 W/m² | - |
| 1777823717 | 25° C | 51% | 1022.3 hPa | 0 mm | - | 677 W/m² | - |
| 1777823414 | 23.89° C | 49% | 1022.4 hPa | 0 mm | - | 666 W/m² | - |
| 1777823112 | 23.89° C | 51% | 1022.2 hPa | 0 mm | - | 653 W/m² | - |
| 1777822809 | 23.89° C | 52% | 1022.3 hPa | 0 mm | - | 641 W/m² | - |
| 1777822507 | 23.33° C | 52% | 1022.3 hPa | 0 mm | - | 634 W/m² | - |
| 1777822204 | 23.33° C | 52% | 1022.2 hPa | 0 mm | - | 619 W/m² | - |
| 1777821902 | 22.78° C | 53% | 1022.3 hPa | 0 mm | - | 606 W/m² | - |
| 1777821599 | 22.78° C | 55% | 1022.4 hPa | 0 mm | - | 591 W/m² | - |
| 1777821298 | 22.78° C | 55% | 1022.3 hPa | 0 mm | - | 566 W/m² | - |
| 1777820994 | 23.33° C | 53% | 1022.3 hPa | 0 mm | - | 562 W/m² | - |
* Rain latest hour (hover to see other rain measurements)
** Current wind speed in m/s (hover to see current wind gust speed)